This is the latest recevied weather packets stored in our database for station/object N7IGG. If no packets are shown the sender has not sent any weather packets the latest 10 day(s).
| Time | Temp. | Humidity | Pressure | Rain* | Wind** | Luminosity | Snow |
|---|---|---|---|---|---|---|---|
| 1777867012 | 17.78° C | 54% | 1009 hPa | 0 mm | - | 0 W/m² | - |
| 1777866710 | 17.78° C | 61% | 1008.9 hPa | 0 mm | - | 0 W/m² | - |
| 1777866407 | 17.22° C | 63% | 1008.9 hPa | 0 mm | - | 0 W/m² | - |
| 1777866104 | 17.22° C | 64% | 1009 hPa | 0 mm | - | 0 W/m² | - |
| 1777865802 | 17.78° C | 61% | 1009.2 hPa | 0 mm | - | 0 W/m² | - |
| 1777865499 | 18.89° C | 57% | 1008.9 hPa | 0 mm | - | 0 W/m² | - |
| 1777865195 | 21.11° C | 48% | 1009 hPa | 0 mm | - | 0 W/m² | - |
| 1777864892 | 22.22° C | 42% | 1009 hPa | 0 mm | - | 1 W/m² | - |
| 1777864590 | 22.78° C | 41% | 1009.2 hPa | 0 mm | - | 2 W/m² | - |
| 1777864286 | 23.33° C | 40% | 1009 hPa | 0 mm | - | 7 W/m² | - |
| 1777863983 | 23.89° C | 39% | 1009 hPa | 0 mm | - | 11 W/m² | - |
| 1777863679 | 23.89° C | 39% | 1008.9 hPa | 0 mm | - | 15 W/m² | - |
| 1777863376 | 24.44° C | 38% | 1009 hPa | 0 mm | - | 18 W/m² | - |
| 1777863073 | 24.44° C | 37% | 1009 hPa | 0 mm | - | 22 W/m² | - |
| 1777862771 | 25° C | 38% | 1009.1 hPa | 0 mm | - | 23 W/m² | - |
| 1777862467 | 25.56° C | 39% | 1009.1 hPa | 0 mm | - | 31 W/m² | - |
| 1777862163 | 25.56° C | 37% | 1008.9 hPa | 0 mm | - | 35 W/m² | - |
| 1777861859 | 25.56° C | 37% | 1009 hPa | 0 mm | - | 38 W/m² | - |
| 1777861556 | 26.11° C | 36% | 1009.1 hPa | 0 mm | - | 44 W/m² | - |
| 1777861252 | 25.56° C | 36% | 1009.3 hPa | 0 mm | - | 67 W/m² | - |
| 1777860950 | 26.67° C | 37% | 1009 hPa | 0 mm | - | 77 W/m² | - |
| 1777860646 | 26.11° C | 38% | 1009.3 hPa | 0 mm | - | 88 W/m² | - |
| 1777860343 | 26.67° C | 39% | 1009.4 hPa | 0 mm | - | 103 W/m² | - |
| 1777860040 | 26.67° C | 41% | 1009.3 hPa | 0 mm | - | 114 W/m² | - |
| 1777859736 | 26.11° C | 41% | 1009.2 hPa | 0 mm | - | 120 W/m² | - |
* Rain latest hour (hover to see other rain measurements)
** Current wind speed in m/s (hover to see current wind gust speed)